Weather WX

World > North America > United States > New York

Chautauqua County, New York Regional Weather

Lat: 42.28N, Lon: 79.41W
Wx Zone: NYZ019
Feedback

Chautauqua County, NY Regional Weather

Expires:201906260400;;084971
ASUS41 KALY 260310
RWRALY

NEW YORK STATE HOURLY WEATHER ROUNDUP
NATIONAL WEATHER SERVICE ALBANY NY
1100 PM EDT TUE JUN 25 2019

NOTE: "FAIR" INDICATES FEW OR NO CLOUDS BELOW 12,000 FEET WITH NO
SIGNIFICANT WEATHER AND/OR NO OBSTRUCTIONS TO VISIBILITY.


NYZ001>004-010>016-019>021-085-260400-
WEST

  
CITY           SKY/WX    TMP DP  RH WIND       PRES   REMARKS
NIAGARA FALLS  FAIR      64  58  80 SW8       29.92S                  
BUFFALO        FAIR      66  57  72 SW8       29.94R                  
DUNKIRK          N/A     68  55  63 S8        29.95R                  
JAMESTOWN      FAIR      62  56  80 S5        30.02R                  
WELLSVILLE     FAIR      62  55  77 W6        30.04R                  
ROCHESTER      FAIR      68  58  70 CALM      29.94R                  
PENN YAN       FAIR      65  58  78 SW5       29.98R                  
$$

             KEY
       WCI = WIND CHILL INDEX
       VSB = VISIBILITY
       HX  = HEAT INDEX
$$
  

SKY/WX - Weather  TMP - Temperature  DP - Dew Point  RH - Relative Humidity
WIND - Wind Direction/Speed PRES - Barometric Pressure VSB - Visibility
WCI - Wind Chill Index E13G22 Wind - East Wind 13 mph/Gusts of 22 mph